N418KC KASH-KDKX

Flight info

Callsign N418KC
Flight time 2h 29m
Altitude 38000
Route SYR WOZEE
Aircraft C525/L-SDFGRWY/SB1

Departure

Time 2026-05-05 19:41
Airport Nashua Airport / Boire Field (KASH)

Arrival

Time 2026-05-05 22:10
Airport Knoxville Downtown Island Airport (KDKX)
Time Latitude Longitude Altitude Speed Heading
2026-05-05 19:35 42.78274 -71.52012 199 ft 0 kts 211°
2026-05-05 19:37 42.78267 -71.52018 199 ft 3 kts 214°
2026-05-05 19:37 42.78247 -71.52062 199 ft 8 kts 285°
2026-05-05 19:38 42.78304 -71.52062 199 ft 14 kts 32°
2026-05-05 19:38 42.78386 -71.52096 200 ft 17 kts 301°
2026-05-05 19:38 42.78445 -71.52219 200 ft 14 kts 303°
2026-05-05 19:38 42.78493 -71.52322 201 ft 11 kts 302°
2026-05-05 19:39 42.78550 -71.52391 201 ft 12 kts 338°
2026-05-05 19:39 42.78638 -71.52387 201 ft 13 kts 37°
2026-05-05 19:39 42.78677 -71.52329 201 ft 3 kts 118°
2026-05-05 19:39 42.78673 -71.52321 201 ft 0 kts 126°
2026-05-05 19:40 42.78672 -71.52319 201 ft 6 kts 124°
2026-05-05 19:40 42.78519 -71.52000 199 ft 72 kts 124°
2026-05-05 19:40 42.78156 -71.51217 235 ft 115 kts 124°
2026-05-05 19:40 42.77713 -71.50195 436 ft 141 kts 129°
2026-05-05 19:41 42.77153 -71.48921 703 ft 169 kts 128°
2026-05-05 19:41 42.76536 -71.47501 1102 ft 184 kts 131°
2026-05-05 19:41 42.75685 -71.46116 1487 ft 194 kts 151°
2026-05-05 19:41 42.74406 -71.45687 1877 ft 194 kts 191°
2026-05-05 19:42 42.73222 -71.46590 2257 ft 206 kts 228°
2026-05-05 19:42 42.72710 -71.48447 2643 ft 227 kts 262°
2026-05-05 19:42 42.73093 -71.50635 3043 ft 249 kts 285°
2026-05-05 19:42 42.73885 -71.52765 3411 ft 261 kts 291°
2026-05-05 19:43 42.74811 -71.54938 3778 ft 270 kts 293°
2026-05-05 19:43 42.75760 -71.57165 4255 ft 272 kts 293°
2026-05-05 19:43 42.76701 -71.59380 4732 ft 273 kts 293°
2026-05-05 19:43 42.77635 -71.61629 5213 ft 273 kts 292°
2026-05-05 19:44 42.78364 -71.63968 5682 ft 265 kts 277°
2026-05-05 19:44 42.78623 -71.66424 6171 ft 261 kts 269°
2026-05-05 19:44 42.78723 -71.68864 6656 ft 260 kts 269°
2026-05-05 19:44 42.78855 -71.71305 7138 ft 260 kts 270°
2026-05-05 19:45 42.79046 -71.73751 7627 ft 260 kts 272°
2026-05-05 19:45 42.79269 -71.76150 8109 ft 259 kts 272°
2026-05-05 19:45 42.79513 -71.78571 8601 ft 257 kts 273°
2026-05-05 19:45 42.79764 -71.80988 9094 ft 256 kts 274°
2026-05-05 19:46 42.80007 -71.83353 9587 ft 254 kts 274°
2026-05-05 19:46 42.80249 -71.85709 10076 ft 252 kts 273°
2026-05-05 19:46 42.80490 -71.88079 10568 ft 250 kts 274°
2026-05-05 19:46 42.80726 -71.90389 11058 ft 248 kts 274°
2026-05-05 19:47 42.80957 -71.92684 11544 ft 246 kts 274°
2026-05-05 19:47 42.81191 -71.94987 12032 ft 244 kts 274°
2026-05-05 19:47 42.81420 -71.97247 12520 ft 242 kts 274°
2026-05-05 19:47 42.81646 -71.99484 13011 ft 240 kts 274°
2026-05-05 19:48 42.81870 -72.01720 13494 ft 241 kts 274°
2026-05-05 19:48 42.82097 -72.04000 13996 ft 246 kts 274°
2026-05-05 19:48 42.82327 -72.06325 14494 ft 250 kts 274°
2026-05-05 19:48 42.82563 -72.08671 14992 ft 254 kts 274°
2026-05-05 19:49 42.82803 -72.11081 15493 ft 257 kts 274°
2026-05-05 19:49 42.82961 -72.12677 15822 ft 259 kts 274°
2026-05-05 19:49 42.83284 -72.15915 16488 ft 261 kts 275°
2026-05-05 19:49 42.83528 -72.18377 16986 ft 262 kts 274°
2026-05-05 19:50 42.83769 -72.20811 17478 ft 263 kts 275°
2026-05-05 19:50 42.84012 -72.23276 17973 ft 264 kts 274°
2026-05-05 19:50 42.84256 -72.25758 18478 ft 264 kts 274°
2026-05-05 19:50 42.84498 -72.28223 18983 ft 264 kts 274°
2026-05-05 19:51 42.84741 -72.30702 19489 ft 264 kts 274°
2026-05-05 19:51 42.84981 -72.33164 20007 ft 263 kts 274°
2026-05-05 19:51 42.85220 -72.35600 20523 ft 262 kts 274°
2026-05-05 19:51 42.85459 -72.38051 21036 ft 260 kts 274°
2026-05-05 19:52 42.85695 -72.40474 21544 ft 258 kts 274°
2026-05-05 19:52 42.85930 -72.42886 22061 ft 256 kts 274°
2026-05-05 19:52 42.86159 -72.45260 22576 ft 254 kts 274°
2026-05-05 19:52 42.86386 -72.47630 23090 ft 252 kts 274°
2026-05-05 19:53 42.86610 -72.49954 23619 ft 249 kts 274°
2026-05-05 19:53 42.86836 -72.52294 24158 ft 246 kts 274°
2026-05-05 19:53 42.87054 -72.54565 24698 ft 242 kts 275°
2026-05-05 19:53 42.87270 -72.56816 25220 ft 238 kts 274°
2026-05-05 19:54 42.87481 -72.59026 25741 ft 234 kts 274°
2026-05-05 19:54 42.87685 -72.61169 26247 ft 230 kts 274°
2026-05-05 19:54 42.87888 -72.63303 26770 ft 225 kts 274°
2026-05-05 19:54 42.88086 -72.65391 27299 ft 219 kts 274°
2026-05-05 19:55 42.88279 -72.67428 27814 ft 214 kts 274°
2026-05-05 19:55 42.88464 -72.69391 28324 ft 209 kts 274°
2026-05-05 19:55 42.88645 -72.71311 28845 ft 202 kts 274°
2026-05-05 19:55 42.88821 -72.73173 29377 ft 194 kts 274°
2026-05-05 19:56 42.88987 -72.74944 29893 ft 186 kts 274°
2026-05-05 19:56 42.89148 -72.76649 30413 ft 176 kts 274°
2026-05-05 19:56 42.89299 -72.78255 30920 ft 166 kts 274°
2026-05-05 19:56 42.89442 -72.79793 31270 ft 162 kts 275°
2026-05-05 19:57 42.89581 -72.81293 31552 ft 162 kts 275°
2026-05-05 19:57 42.89673 -72.82305 31732 ft 161 kts 275°
2026-05-05 19:57 42.89858 -72.84323 32098 ft 160 kts 275°
2026-05-05 19:57 42.89996 -72.85827 32367 ft 160 kts 275°
2026-05-05 19:58 42.90136 -72.87340 32535 ft 164 kts 276°
2026-05-05 19:58 42.90280 -72.88905 32693 ft 169 kts 276°
2026-05-05 19:58 42.90429 -72.90512 32850 ft 174 kts 276°
2026-05-05 19:58 42.90583 -72.92170 33006 ft 179 kts 277°
2026-05-05 19:59 42.90741 -72.93882 33151 ft 185 kts 277°
2026-05-05 19:59 42.90904 -72.95659 33313 ft 190 kts 277°
2026-05-05 19:59 42.91070 -72.97452 33471 ft 195 kts 276°
2026-05-05 19:59 42.91242 -72.99329 33626 ft 201 kts 277°
2026-05-05 20:00 42.91419 -73.01261 33782 ft 207 kts 277°
2026-05-05 20:00 42.91598 -73.03220 33933 ft 213 kts 277°
2026-05-05 20:00 42.91783 -73.05250 34099 ft 218 kts 277°
2026-05-05 20:00 42.91970 -73.07305 34402 ft 218 kts 278°
2026-05-05 20:01 42.92157 -73.09359 34681 ft 219 kts 278°
2026-05-05 20:01 42.92343 -73.11411 34982 ft 220 kts 277°
2026-05-05 20:01 42.92530 -73.13478 35279 ft 220 kts 276°
2026-05-05 20:01 42.92716 -73.15540 35567 ft 221 kts 277°
2026-05-05 20:02 42.92904 -73.17622 35674 ft 221 kts 277°
2026-05-05 20:02 42.93090 -73.19688 35924 ft 220 kts 276°
2026-05-05 20:02 42.93275 -73.21753 36171 ft 220 kts 276°
2026-05-05 20:02 42.93460 -73.23818 36424 ft 218 kts 277°
2026-05-05 20:03 42.93644 -73.25877 36663 ft 217 kts 276°
2026-05-05 20:03 42.93825 -73.27914 36954 ft 216 kts 276°
2026-05-05 20:03 42.94006 -73.29938 37625 ft 214 kts 275°
2026-05-05 20:03 42.94184 -73.31943 37771 ft 217 kts 276°
2026-05-05 20:04 42.94364 -73.33994 37727 ft 216 kts 275°
2026-05-05 20:04 42.94547 -73.36070 37744 ft 224 kts 275°
2026-05-05 20:04 42.94733 -73.38185 37773 ft 231 kts 275°
2026-05-05 20:04 42.94927 -73.40402 37798 ft 238 kts 275°
2026-05-05 20:05 42.95128 -73.42703 37796 ft 246 kts 274°
2026-05-05 20:05 42.95335 -73.45074 37778 ft 255 kts 275°
2026-05-05 20:05 42.95546 -73.47493 37783 ft 262 kts 275°
2026-05-05 20:05 42.95767 -73.50018 37790 ft 269 kts 275°
2026-05-05 20:06 42.95988 -73.52555 37788 ft 276 kts 275°
2026-05-05 20:06 42.96217 -73.55187 37779 ft 282 kts 275°
2026-05-05 20:06 42.96450 -73.57876 37783 ft 289 kts 276°
2026-05-05 20:06 42.96687 -73.60611 37783 ft 294 kts 275°
2026-05-05 20:07 42.96928 -73.63422 37777 ft 300 kts 275°
2026-05-05 20:07 42.97421 -73.69166 37766 ft 310 kts 275°
2026-05-05 20:07 42.97669 -73.72073 38155 ft 306 kts 275°
2026-05-05 20:08 42.97911 -73.74889 38823 ft 295 kts 274°
2026-05-05 20:08 42.98146 -73.77620 39486 ft 284 kts 274°
2026-05-05 20:08 42.98372 -73.80269 39724 ft 285 kts 274°
2026-05-05 20:08 42.98599 -73.82989 39753 ft 290 kts 274°
2026-05-05 20:09 42.98827 -73.85745 39762 ft 296 kts 273°
2026-05-05 20:09 42.99300 -73.91465 39767 ft 306 kts 274°
2026-05-05 20:10 42.99789 -73.97359 39769 ft 316 kts 274°
2026-05-05 20:10 43.00288 -74.03374 39767 ft 324 kts 274°
2026-05-05 20:11 43.00796 -74.09566 39776 ft 332 kts 274°
2026-05-05 20:11 43.01313 -74.15910 39765 ft 339 kts 274°
2026-05-05 20:12 43.01834 -74.22347 39774 ft 344 kts 274°
2026-05-05 20:12 43.02362 -74.28921 39774 ft 349 kts 274°
2026-05-05 20:13 43.02892 -74.35554 39767 ft 353 kts 274°
2026-05-05 20:13 43.03421 -74.42245 39773 ft 357 kts 274°
2026-05-05 20:14 43.03950 -74.48972 39772 ft 355 kts 274°
2026-05-05 20:14 43.04474 -74.55689 39767 ft 355 kts 274°
2026-05-05 20:15 43.04993 -74.62405 39763 ft 355 kts 274°
2026-05-05 20:15 43.05511 -74.69147 39763 ft 355 kts 274°
2026-05-05 20:16 43.06025 -74.75897 39757 ft 355 kts 274°
2026-05-05 20:16 43.06530 -74.82591 39774 ft 355 kts 273°
2026-05-05 20:17 43.07032 -74.89310 39773 ft 356 kts 273°
2026-05-05 20:17 43.07529 -74.95999 39765 ft 355 kts 273°
2026-05-05 20:18 43.08023 -75.02691 39775 ft 355 kts 273°
2026-05-05 20:18 43.08511 -75.09352 39762 ft 353 kts 274°
2026-05-05 20:19 43.08994 -75.16015 39770 ft 353 kts 273°
2026-05-05 20:19 43.09472 -75.22672 39774 ft 352 kts 274°
2026-05-05 20:20 43.09945 -75.29308 39763 ft 351 kts 274°
2026-05-05 20:20 43.10415 -75.35944 39774 ft 351 kts 274°
2026-05-05 20:21 43.10880 -75.42573 39756 ft 351 kts 274°
2026-05-05 20:21 43.11340 -75.49191 39773 ft 350 kts 274°
2026-05-05 20:22 43.11799 -75.55838 39765 ft 350 kts 274°
2026-05-05 20:22 43.12249 -75.62415 39762 ft 350 kts 274°
2026-05-05 20:23 43.12700 -75.69064 39773 ft 350 kts 273°
2026-05-05 20:23 43.13144 -75.75665 39759 ft 349 kts 273°
2026-05-05 20:24 43.13581 -75.82245 39774 ft 348 kts 273°
2026-05-05 20:24 43.14016 -75.88824 39764 ft 348 kts 274°
2026-05-05 20:25 43.14447 -75.95409 39758 ft 347 kts 273°
2026-05-05 20:25 43.14873 -76.01975 39772 ft 347 kts 273°
2026-05-05 20:26 43.15298 -76.08572 39774 ft 347 kts 273°
2026-05-05 20:26 43.15715 -76.15128 39765 ft 346 kts 274°
2026-05-05 20:27 43.16050 -76.21684 39768 ft 345 kts 271°
2026-05-05 20:27 43.15776 -76.28206 39769 ft 345 kts 263°
2026-05-05 20:28 43.15061 -76.34666 39778 ft 344 kts 262°
2026-05-05 20:28 43.14394 -76.41154 39770 ft 344 kts 263°
2026-05-05 20:29 43.13859 -76.47616 39774 ft 344 kts 264°
2026-05-05 20:29 43.13363 -76.54082 39770 ft 344 kts 264°
2026-05-05 20:30 43.12852 -76.60558 39776 ft 342 kts 264°
2026-05-05 20:30 43.12323 -76.67019 39777 ft 341 kts 263°
2026-05-05 20:31 43.11783 -76.73517 39782 ft 341 kts 264°
2026-05-05 20:31 43.11246 -76.79958 39776 ft 341 kts 263°
2026-05-05 20:32 43.10709 -76.86384 39775 ft 341 kts 264°
2026-05-05 20:32 43.10168 -76.92800 39784 ft 340 kts 264°
2026-05-05 20:33 43.09626 -76.99188 39793 ft 339 kts 264°
2026-05-05 20:33 43.09079 -77.05588 39778 ft 339 kts 264°
2026-05-05 20:34 43.08532 -77.11951 39778 ft 338 kts 264°
2026-05-05 20:34 43.07980 -77.18322 39786 ft 338 kts 263°
2026-05-05 20:35 43.07427 -77.24673 39782 ft 336 kts 263°
2026-05-05 20:35 43.06872 -77.31001 39776 ft 336 kts 264°
2026-05-05 20:36 43.06315 -77.37309 39773 ft 336 kts 263°
2026-05-05 20:36 43.05750 -77.43676 39775 ft 336 kts 264°
2026-05-05 20:37 43.05181 -77.50023 39780 ft 337 kts 264°
2026-05-05 20:37 43.04612 -77.56349 39783 ft 337 kts 264°
2026-05-05 20:38 43.04037 -77.62700 39776 ft 336 kts 264°
2026-05-05 20:38 43.03461 -77.69026 39793 ft 337 kts 263°
2026-05-05 20:39 43.02956 -77.74538 39784 ft 336 kts 263°
2026-05-05 20:39 43.02354 -77.81060 39788 ft 336 kts 264°
2026-05-05 20:40 43.01770 -77.87357 39768 ft 335 kts 263°
2026-05-05 20:40 43.01181 -77.93663 39768 ft 336 kts 263°
2026-05-05 20:41 43.00589 -77.99971 39785 ft 336 kts 263°
2026-05-05 20:41 42.99992 -78.06282 39795 ft 336 kts 264°
2026-05-05 20:42 42.99397 -78.12526 40325 ft 321 kts 263°
2026-05-05 20:42 42.99115 -78.15472 40786 ft 308 kts 264°
2026-05-05 20:42 42.98842 -78.18317 41226 ft 297 kts 264°
2026-05-05 20:42 42.98577 -78.21072 41674 ft 285 kts 263°
2026-05-05 20:43 42.98327 -78.23673 42122 ft 272 kts 263°
2026-05-05 20:43 42.98085 -78.26180 42567 ft 259 kts 264°
2026-05-05 20:43 42.97854 -78.28574 42728 ft 257 kts 264°
2026-05-05 20:43 42.97619 -78.31013 42772 ft 259 kts 263°
2026-05-05 20:44 42.97383 -78.33453 42784 ft 262 kts 263°
2026-05-05 20:44 42.97140 -78.35953 42771 ft 265 kts 264°
2026-05-05 20:44 42.96898 -78.38441 42781 ft 267 kts 264°
2026-05-05 20:44 42.96650 -78.40975 42776 ft 270 kts 264°
2026-05-05 20:45 42.96147 -78.46107 42777 ft 275 kts 263°
2026-05-05 20:45 42.95893 -78.48684 42788 ft 277 kts 263°
2026-05-05 20:45 42.95634 -78.51297 42774 ft 280 kts 264°
2026-05-05 20:46 42.95373 -78.53937 42765 ft 282 kts 263°
2026-05-05 20:46 42.95106 -78.56630 42782 ft 284 kts 263°
2026-05-05 20:46 42.94836 -78.59341 42775 ft 286 kts 264°
2026-05-05 20:46 42.94568 -78.62031 42774 ft 288 kts 263°
2026-05-05 20:47 42.94297 -78.64750 42778 ft 290 kts 264°
2026-05-05 20:47 42.94022 -78.67493 42763 ft 292 kts 263°
2026-05-05 20:47 42.93782 -78.69871 42772 ft 294 kts 263°
2026-05-05 20:47 42.93392 -78.72589 42779 ft 297 kts 256°
2026-05-05 20:48 42.92596 -78.75226 42781 ft 304 kts 244°
2026-05-05 20:48 42.91242 -78.77476 42772 ft 315 kts 229°
2026-05-05 20:48 42.89360 -78.79150 42807 ft 327 kts 214°
2026-05-05 20:48 42.87211 -78.80364 42796 ft 335 kts 208°
2026-05-05 20:49 42.82877 -78.82685 42798 ft 335 kts 213°
2026-05-05 20:49 42.78764 -78.85697 42805 ft 333 kts 219°
2026-05-05 20:50 42.75506 -78.88500 42792 ft 336 kts 220°
2026-05-05 20:50 42.70845 -78.92532 42794 ft 339 kts 220°
2026-05-05 20:51 42.66801 -78.95891 42792 ft 343 kts 219°
2026-05-05 20:51 42.62699 -78.99236 42799 ft 347 kts 219°
2026-05-05 20:52 42.58549 -79.02623 42790 ft 349 kts 220°
2026-05-05 20:52 42.54357 -79.06053 42794 ft 352 kts 219°
2026-05-05 20:53 42.50160 -79.09489 42792 ft 353 kts 219°
2026-05-05 20:53 42.45919 -79.12954 42800 ft 355 kts 219°
2026-05-05 20:54 42.41656 -79.16428 42803 ft 357 kts 219°
2026-05-05 20:54 42.37390 -79.19899 42802 ft 359 kts 219°
2026-05-05 20:55 42.33099 -79.23386 42794 ft 361 kts 220°
2026-05-05 20:55 42.28775 -79.26892 42814 ft 362 kts 220°
2026-05-05 20:56 42.24457 -79.30389 42812 ft 363 kts 219°
2026-05-05 20:56 42.20101 -79.33912 42816 ft 364 kts 219°
2026-05-05 20:57 42.15781 -79.37399 42818 ft 365 kts 220°
2026-05-05 20:57 42.11407 -79.40925 42804 ft 366 kts 220°
2026-05-05 20:58 42.07011 -79.44462 42811 ft 368 kts 220°
2026-05-05 20:58 42.02626 -79.47984 42793 ft 369 kts 220°
2026-05-05 20:59 41.98211 -79.51524 42806 ft 369 kts 220°
2026-05-05 20:59 41.93801 -79.55054 42817 ft 369 kts 220°
2026-05-05 21:00 41.89350 -79.58614 42824 ft 370 kts 219°
2026-05-05 21:00 41.84913 -79.62155 42813 ft 371 kts 220°
2026-05-05 21:01 41.80442 -79.65717 42815 ft 371 kts 219°
2026-05-05 21:01 41.75972 -79.69273 42816 ft 372 kts 219°
2026-05-05 21:02 41.71519 -79.72810 42827 ft 373 kts 219°
2026-05-05 21:02 41.67049 -79.76355 42819 ft 374 kts 219°
2026-05-05 21:03 41.62541 -79.79922 42820 ft 375 kts 219°
2026-05-05 21:03 41.58057 -79.83466 42837 ft 375 kts 220°
2026-05-05 21:04 41.53523 -79.87044 42821 ft 376 kts 220°
2026-05-05 21:04 41.49022 -79.90588 42827 ft 377 kts 219°
2026-05-05 21:05 41.44515 -79.94132 42836 ft 377 kts 220°
2026-05-05 21:05 41.39983 -79.97690 42839 ft 378 kts 219°
2026-05-05 21:06 41.35417 -80.01269 42834 ft 379 kts 220°
2026-05-05 21:06 41.30892 -80.04810 42831 ft 379 kts 220°
2026-05-05 21:07 41.26344 -80.08364 42830 ft 380 kts 220°
2026-05-05 21:07 41.21783 -80.11922 42828 ft 381 kts 220°
2026-05-05 21:08 41.17215 -80.15479 42825 ft 382 kts 220°
2026-05-05 21:08 41.12622 -80.19048 42830 ft 382 kts 220°
2026-05-05 21:09 41.08012 -80.22626 42830 ft 383 kts 220°
2026-05-05 21:09 41.03389 -80.26209 42835 ft 383 kts 220°
2026-05-05 21:10 40.98795 -80.29762 42830 ft 384 kts 220°
2026-05-05 21:10 40.94170 -80.33334 42835 ft 384 kts 220°
2026-05-05 21:11 40.89564 -80.36884 42839 ft 384 kts 220°
2026-05-05 21:11 40.84920 -80.40459 42839 ft 384 kts 220°
2026-05-05 21:12 40.80325 -80.43990 42839 ft 384 kts 221°
2026-05-05 21:12 40.75715 -80.47527 42843 ft 383 kts 221°
2026-05-05 21:13 40.71108 -80.51057 42846 ft 383 kts 221°
2026-05-05 21:13 40.66507 -80.54576 42836 ft 383 kts 221°
2026-05-05 21:14 40.61897 -80.58097 42836 ft 383 kts 221°
2026-05-05 21:14 40.57261 -80.61631 42841 ft 383 kts 221°
2026-05-05 21:15 40.52674 -80.65122 42841 ft 383 kts 220°
2026-05-05 21:15 40.48018 -80.68662 42834 ft 384 kts 221°
2026-05-05 21:16 40.43365 -80.72193 42838 ft 385 kts 221°
2026-05-05 21:16 40.38725 -80.75707 42840 ft 386 kts 221°
2026-05-05 21:17 40.34042 -80.79247 42844 ft 387 kts 221°
2026-05-05 21:17 40.29359 -80.82781 42846 ft 387 kts 221°
2026-05-05 21:18 40.24682 -80.86307 42851 ft 387 kts 221°
2026-05-05 21:18 40.20032 -80.89804 42855 ft 386 kts 221°
2026-05-05 21:19 40.15363 -80.93312 42854 ft 386 kts 221°
2026-05-05 21:19 40.10681 -80.96826 42853 ft 386 kts 221°
2026-05-05 21:20 40.05996 -81.00336 42860 ft 386 kts 221°
2026-05-05 21:20 40.01291 -81.03854 42862 ft 387 kts 221°
2026-05-05 21:21 39.96612 -81.07345 42862 ft 387 kts 221°
2026-05-05 21:21 39.91938 -81.10828 42863 ft 386 kts 221°
2026-05-05 21:22 39.87256 -81.14312 42875 ft 385 kts 221°
2026-05-05 21:22 39.82606 -81.17765 42873 ft 384 kts 222°
2026-05-05 21:23 39.77976 -81.21202 42855 ft 385 kts 221°
2026-05-05 21:23 39.73284 -81.24677 42886 ft 385 kts 222°
2026-05-05 21:24 39.68658 -81.28100 42862 ft 385 kts 221°
2026-05-05 21:24 39.64005 -81.31534 42870 ft 386 kts 222°
2026-05-05 21:25 39.59317 -81.34989 42840 ft 386 kts 222°
2026-05-05 21:25 39.54672 -81.38407 42892 ft 386 kts 223°
2026-05-05 21:26 39.50000 -81.41841 42868 ft 386 kts 223°
2026-05-05 21:26 39.45341 -81.45260 42875 ft 386 kts 223°
2026-05-05 21:27 39.40677 -81.48675 42865 ft 385 kts 223°
2026-05-05 21:27 39.35991 -81.52100 42837 ft 384 kts 223°
2026-05-05 21:28 39.31387 -81.55462 42853 ft 383 kts 223°
2026-05-05 21:28 39.26788 -81.58818 42839 ft 383 kts 223°
2026-05-05 21:29 39.22165 -81.62184 42849 ft 383 kts 223°
2026-05-05 21:29 39.17511 -81.65569 42846 ft 383 kts 223°
2026-05-05 21:30 39.12863 -81.68943 42845 ft 383 kts 223°
2026-05-05 21:30 39.08191 -81.72329 42843 ft 385 kts 222°
2026-05-05 21:31 39.03536 -81.75700 42849 ft 386 kts 222°
2026-05-05 21:31 38.98859 -81.79077 42857 ft 386 kts 223°
2026-05-05 21:32 38.94168 -81.82458 42866 ft 385 kts 223°
2026-05-05 21:32 38.89449 -81.85857 42867 ft 385 kts 222°
2026-05-05 21:33 38.84888 -81.89374 42877 ft 382 kts 224°
2026-05-05 21:33 38.79999 -81.92396 42875 ft 397 kts 214°
2026-05-05 21:34 38.74787 -81.94813 42872 ft 400 kts 213°
2026-05-05 21:34 38.69551 -81.97292 42872 ft 399 kts 214°
2026-05-05 21:35 38.64389 -81.99937 42879 ft 396 kts 216°
2026-05-05 21:35 38.59286 -82.02634 42876 ft 397 kts 216°
2026-05-05 21:36 38.54164 -82.05321 42880 ft 396 kts 215°
2026-05-05 21:36 38.49012 -82.08003 42299 ft 406 kts 216°
2026-05-05 21:37 38.46382 -82.09373 41819 ft 412 kts 216°
2026-05-05 21:37 38.43713 -82.10756 41342 ft 414 kts 216°
2026-05-05 21:37 38.41053 -82.12123 40869 ft 413 kts 216°
2026-05-05 21:37 38.38363 -82.13505 40399 ft 416 kts 216°
2026-05-05 21:38 38.35674 -82.14887 39922 ft 416 kts 216°
2026-05-05 21:38 38.33027 -82.16245 39459 ft 416 kts 216°
2026-05-05 21:38 38.30308 -82.17645 39012 ft 418 kts 216°
2026-05-05 21:38 38.27610 -82.19034 38590 ft 418 kts 216°
2026-05-05 21:39 38.24933 -82.20412 38171 ft 418 kts 216°
2026-05-05 21:39 38.22220 -82.21806 37748 ft 419 kts 216°
2026-05-05 21:39 38.19535 -82.23183 37323 ft 418 kts 215°
2026-05-05 21:39 38.16835 -82.24568 36904 ft 418 kts 215°
2026-05-05 21:40 38.14125 -82.25958 36484 ft 419 kts 215°
2026-05-05 21:40 38.11429 -82.27338 36066 ft 418 kts 215°
2026-05-05 21:40 38.08751 -82.28711 35658 ft 421 kts 214°
2026-05-05 21:40 38.06038 -82.30100 35244 ft 421 kts 214°
2026-05-05 21:41 38.03308 -82.31496 34831 ft 423 kts 214°
2026-05-05 21:41 38.00566 -82.32896 34421 ft 423 kts 214°
2026-05-05 21:41 37.97859 -82.34279 34010 ft 424 kts 214°
2026-05-05 21:41 37.95127 -82.35671 33614 ft 424 kts 214°
2026-05-05 21:42 37.92383 -82.37065 33251 ft 424 kts 213°
2026-05-05 21:42 37.89666 -82.38449 32885 ft 425 kts 213°
2026-05-05 21:42 37.86880 -82.39865 32510 ft 426 kts 213°
2026-05-05 21:42 37.84145 -82.41252 32145 ft 425 kts 213°
2026-05-05 21:43 37.81376 -82.42657 31767 ft 424 kts 212°
2026-05-05 21:43 37.78636 -82.44052 31397 ft 425 kts 212°
2026-05-05 21:43 37.75905 -82.45437 31027 ft 425 kts 212°
2026-05-05 21:43 37.73170 -82.46825 30661 ft 427 kts 211°
2026-05-05 21:44 37.70392 -82.48225 30283 ft 428 kts 211°
2026-05-05 21:44 37.67651 -82.49609 29900 ft 423 kts 211°
2026-05-05 21:44 37.64930 -82.50980 29522 ft 421 kts 211°
2026-05-05 21:44 37.62222 -82.52351 29126 ft 420 kts 211°
2026-05-05 21:45 37.59500 -82.53720 28730 ft 418 kts 211°
2026-05-05 21:45 37.56823 -82.55070 28340 ft 416 kts 211°
2026-05-05 21:45 37.54119 -82.56428 27942 ft 415 kts 211°
2026-05-05 21:45 37.51454 -82.57773 27552 ft 414 kts 211°
2026-05-05 21:46 37.48804 -82.59107 27172 ft 408 kts 211°
2026-05-05 21:46 37.46178 -82.60422 26780 ft 404 kts 211°
2026-05-05 21:46 37.43560 -82.61735 26390 ft 400 kts 211°
2026-05-05 21:46 37.40990 -82.63026 25999 ft 398 kts 211°
2026-05-05 21:47 37.38436 -82.64304 25609 ft 395 kts 211°
2026-05-05 21:47 37.35891 -82.65580 25217 ft 393 kts 210°
2026-05-05 21:47 37.33338 -82.66860 24828 ft 392 kts 210°
2026-05-05 21:47 37.30783 -82.68143 24442 ft 391 kts 210°
2026-05-05 21:48 37.28274 -82.69400 24055 ft 389 kts 209°
2026-05-05 21:48 37.25756 -82.70659 23667 ft 388 kts 209°
2026-05-05 21:48 37.23238 -82.71916 23278 ft 387 kts 209°
2026-05-05 21:48 37.20766 -82.73149 22906 ft 386 kts 209°
2026-05-05 21:49 37.18272 -82.74392 22536 ft 384 kts 209°
2026-05-05 21:49 37.15795 -82.75625 22160 ft 383 kts 209°
2026-05-05 21:49 37.13294 -82.76870 21790 ft 382 kts 208°
2026-05-05 21:49 37.10830 -82.78095 21423 ft 381 kts 208°
2026-05-05 21:50 37.08399 -82.79305 21053 ft 380 kts 208°
2026-05-05 21:50 37.05947 -82.80523 20684 ft 379 kts 208°
2026-05-05 21:50 37.03509 -82.81733 20315 ft 378 kts 208°
2026-05-05 21:50 37.01059 -82.82949 19945 ft 376 kts 208°
2026-05-05 21:51 36.98617 -82.84159 19574 ft 375 kts 208°
2026-05-05 21:51 36.96198 -82.85358 19202 ft 375 kts 207°
2026-05-05 21:51 36.93768 -82.86562 18831 ft 374 kts 207°
2026-05-05 21:51 36.91349 -82.87759 18460 ft 373 kts 207°
2026-05-05 21:52 36.86540 -82.90136 17710 ft 371 kts 207°
2026-05-05 21:52 36.84104 -82.91338 17333 ft 370 kts 207°
2026-05-05 21:52 36.81703 -82.92522 16958 ft 369 kts 207°
2026-05-05 21:53 36.79324 -82.93695 16589 ft 368 kts 207°
2026-05-05 21:53 36.76968 -82.94855 16230 ft 367 kts 206°
2026-05-05 21:53 36.74574 -82.96034 15848 ft 366 kts 206°
2026-05-05 21:53 36.72233 -82.97186 15479 ft 365 kts 206°
2026-05-05 21:54 36.69868 -82.98350 15113 ft 364 kts 206°
2026-05-05 21:54 36.67515 -82.99506 14750 ft 363 kts 206°
2026-05-05 21:54 36.65148 -83.00668 14376 ft 362 kts 206°
2026-05-05 21:54 36.62822 -83.01809 14012 ft 361 kts 206°
2026-05-05 21:55 36.60469 -83.02963 13642 ft 360 kts 206°
2026-05-05 21:55 36.58159 -83.04095 13263 ft 359 kts 205°
2026-05-05 21:55 36.55835 -83.05234 12901 ft 358 kts 205°
2026-05-05 21:55 36.53536 -83.06359 12587 ft 356 kts 205°
2026-05-05 21:56 36.51213 -83.07494 12257 ft 354 kts 205°
2026-05-05 21:56 36.48920 -83.08615 11938 ft 353 kts 205°
2026-05-05 21:56 36.46652 -83.09724 11625 ft 352 kts 205°
2026-05-05 21:56 36.44369 -83.10839 11305 ft 352 kts 205°
2026-05-05 21:57 36.42078 -83.11957 10985 ft 351 kts 204°
2026-05-05 21:57 36.39816 -83.13060 10670 ft 351 kts 204°
2026-05-05 21:57 36.37533 -83.14173 10352 ft 351 kts 204°
2026-05-05 21:57 36.35315 -83.15249 10023 ft 326 kts 204°
2026-05-05 21:58 36.33315 -83.16214 9758 ft 300 kts 204°
2026-05-05 21:58 36.31408 -83.17134 9491 ft 282 kts 204°
2026-05-05 21:58 36.29630 -83.17996 9236 ft 269 kts 204°
2026-05-05 21:58 36.27916 -83.18834 8988 ft 267 kts 204°
2026-05-05 21:59 36.26186 -83.19682 8746 ft 266 kts 204°
2026-05-05 21:59 36.24462 -83.20525 8511 ft 266 kts 204°
2026-05-05 21:59 36.22744 -83.21363 8274 ft 265 kts 204°
2026-05-05 21:59 36.21011 -83.22205 8030 ft 265 kts 203°
2026-05-05 22:00 36.19307 -83.23032 7794 ft 265 kts 203°
2026-05-05 22:00 36.17588 -83.23864 7546 ft 264 kts 203°
2026-05-05 22:00 36.15865 -83.24697 7303 ft 264 kts 203°
2026-05-05 22:00 36.14164 -83.25520 7065 ft 264 kts 202°
2026-05-05 22:01 36.12450 -83.26349 6815 ft 263 kts 202°
2026-05-05 22:01 36.10750 -83.27171 6579 ft 262 kts 202°
2026-05-05 22:01 36.09175 -83.28275 6320 ft 263 kts 221°
2026-05-05 22:01 36.08189 -83.30154 6089 ft 268 kts 247°
2026-05-05 22:02 36.07867 -83.32457 5871 ft 271 kts 261°
2026-05-05 22:02 36.07660 -83.34759 5626 ft 271 kts 260°
2026-05-05 22:02 36.07353 -83.37034 5384 ft 270 kts 255°
2026-05-05 22:02 36.06923 -83.39300 5157 ft 268 kts 252°
2026-05-05 22:03 36.06438 -83.41511 4963 ft 266 kts 251°
2026-05-05 22:03 36.05940 -83.43688 4776 ft 265 kts 251°
2026-05-05 22:03 36.05436 -83.45885 4575 ft 264 kts 251°
2026-05-05 22:03 36.04945 -83.48050 4404 ft 262 kts 251°
2026-05-05 22:04 36.04455 -83.50227 4253 ft 260 kts 251°
2026-05-05 22:04 36.03972 -83.52376 4109 ft 259 kts 251°
2026-05-05 22:04 36.03499 -83.54488 3967 ft 258 kts 251°
2026-05-05 22:04 36.03021 -83.56618 3820 ft 257 kts 251°
2026-05-05 22:05 36.02537 -83.58765 3673 ft 256 kts 251°
2026-05-05 22:05 36.02062 -83.60883 3527 ft 256 kts 251°
2026-05-05 22:05 36.01597 -83.62964 3486 ft 252 kts 252°
2026-05-05 22:05 36.01165 -83.65005 3473 ft 248 kts 251°
2026-05-05 22:06 36.00722 -83.67106 3474 ft 244 kts 251°
2026-05-05 22:06 36.00295 -83.69108 3476 ft 241 kts 251°
2026-05-05 22:06 35.99868 -83.71107 3485 ft 237 kts 251°
2026-05-05 22:06 35.99456 -83.73042 3328 ft 227 kts 251°
2026-05-05 22:07 35.99063 -83.74877 2910 ft 210 kts 251°
2026-05-05 22:07 35.98733 -83.76436 2620 ft 164 kts 251°
2026-05-05 22:07 35.98470 -83.77663 2567 ft 127 kts 250°
2026-05-05 22:07 35.98264 -83.78622 2297 ft 113 kts 249°
2026-05-05 22:08 35.98068 -83.79517 2076 ft 101 kts 250°
2026-05-05 22:08 35.97883 -83.80334 1906 ft 99 kts 249°
2026-05-05 22:08 35.97716 -83.81146 1801 ft 97 kts 253°
2026-05-05 22:08 35.97545 -83.81956 1715 ft 97 kts 249°
2026-05-05 22:09 35.97367 -83.82790 1605 ft 101 kts 253°
2026-05-05 22:09 35.97198 -83.83624 1525 ft 98 kts 249°
2026-05-05 22:09 35.97013 -83.84448 1382 ft 102 kts 261°
2026-05-05 22:09 35.96849 -83.85291 1283 ft 99 kts 250°
2026-05-05 22:10 35.96655 -83.86118 1029 ft 100 kts 252°
2026-05-05 22:10 35.96479 -83.86925 848 ft 90 kts 254°
2026-05-05 22:10 35.96336 -83.87583 844 ft 65 kts 254°
2026-05-05 22:10 35.96266 -83.87913 843 ft 17 kts 227°
2026-05-05 22:11 35.96223 -83.87878 844 ft 4 kts 104°
2026-05-05 22:11 35.96217 -83.87838 844 ft 13 kts 97°
2026-05-05 22:11 35.96221 -83.87650 844 ft 26 kts 79°
2026-05-05 22:11 35.96272 -83.87401 844 ft 32 kts 78°
2026-05-05 22:12 35.96259 -83.87304 844 ft 0 kts 356°